Regional Weather Roundup
Issued by NWS

Home | Current Version | Previous Version | Text Only | Print | Product List | Glossary On
Versions: 1 2 3 4 5 6 7 8 9 10 11 12 13 14 15 16 17 18 19 20 21 22 23 24 25 26 27 28 29 30 31 32 33 34 35 36 37 38 39 40 41 42 43 44 45 46 47 48 49 50
000
ASUS44 KEWX 301103
RWRTX
SOUTH TEXAS REGIONAL WEATHER ROUNDUP
NATIONAL WEATHER SERVICE AUSTIN/SAN ANTONIO TX
600 AM CDT THU JUL 30 2015

NOTE: "FAIR" INDICATED FEW OR NO CLOUDS BELOW 12,000 FEET WITH NO
SIGNIFICANT WEATHER AND/OR OBSTRUCTIONS TO VISIBILITY.

* - THESE STATIONS ARE NOT NWS OR FAA STATIONS...AND ARE NOT SUBJECT
    TO NWS AND FAA QUALITY CONTROL.

TXZ171-172-183>190-301200-
TEXAS HILL COUNTRY AND EDWARDS PLATEAU

CITY           SKY/WX    TMP DP  RH WIND       PRES   REMARKS
JUNCTION       CLEAR     74  67  78 N3        30.11R
*LLANO         CLEAR     73  66  78 CALM      30.11R
BURNET         CLEAR     75  66  73 CALM      30.11R
*HORSESHOE BAY CLEAR     73  66  77 CALM      30.08R
*KERRVILLE     CLEAR     72  67  85 CALM      30.11S
*FREDERICKSBRG CLEAR     71  65  80 CALM      30.11R
*ROCKSPRINGS   CLEAR     72  66  83 S5        30.15R
*BOERNE STAGE  CLEAR     66  63  88 CALM      30.10S
*CASTROVILLE   MOCLDY    72  66  82 CALM      30.08R
HONDO          CLEAR     71  67  87 N3        30.09R
*UVALDE        CLEAR     72  68  87 NE3       30.07S
DEL RIO        CLEAR     78  70  76 E5        30.04R
LAUGHLIN AFB   CLEAR     76  70  81 E7        30.05R
CARRIZO SPRGS  NOT AVBL
$$

TXZ173-191>194-202-209-217>225-228-301200-
CENTRAL AND SOUTH CENTRAL TEXAS

CITY           SKY/WX    TMP DP  RH WIND       PRES   REMARKS
GEORGETOWN     CLEAR     73  66  78 CALM      30.05R
AUSTIN/BERGSTM PTCLDY    71  71 100 CALM      30.05R
AUSTIN/MABRY   CLEAR     77  70  79 CALM      30.06S
*AUSTIN/EXEC   CLEAR     73  72  94 CALM      30.06R
*LAGO VISTA    CLEAR     79  66  65 W6        30.09S
SAN MARCOS     CLEAR     72  70  94 CALM      30.07R
NEW BRAUNFELS  CLEAR     74  71  91 SW3       30.04R
RANDOLPH AFB   PTCLDY    75  73  93 SW8       30.06R
PT SAN ANTONIO CLOUDY    73  71  92 CALM      30.06R
SAN ANTONIO    CLEAR     77  70  79 SW3       30.07R
STINSON FIELD  CLOUDY    76  74  93 SW3       30.04R
*PLEASANTON    CLOUDY    73  72  96 CALM      30.05S FOG
*LA GRANGE     CLEAR     75  74  96 CALM      30.02S FOG
*GIDDINGS      CLEAR     74  72  92 CALM      30.08R
*GONZALES      CLOUDY    75  74  99 CALM      30.04S
$$

TXZ163>164-176>182-195>201-210>213-226-227-235-301200-
SOUTHEAST TEXAS

CITY           SKY/WX    TMP DP  RH WIND       PRES   REMARKS
COLLEGE STN    CLEAR     77  73  87 CALM      30.04S
*BRYAN         CLEAR     77  73  88 SW3       30.05S
*CALDWELL      CLEAR     73  73 100 CALM      30.07S
*CROCKETT      CLEAR     75  73  94 CALM      30.06S
*BRENHAM       CLEAR     78  76  95 CALM      30.04S
HUNTSVILLE     PTCLDY    78  74  87 SW5       30.04S
CONROE         PTCLDY    77  73  87 CALM      30.03S
HOUSTON BUSH   PTCLDY    80  77  90 W6        30.02S
HOUSTON HOBBY  PTCLDY    81  77  88 NW5       30.00F
*HOUSTON SW AP CLEAR     76  75  96 CALM      30.02S
PEARLAND       PTCLDY    80  76  87 NW3       30.02S
HOUSTON HOOKS  CLEAR     78  76  93 W5        30.02S
ELLINGTON FLD  PTCLDY    81  73  78 W5        30.01
SUGAR LAND     CLEAR     77  75  93 W3        30.01S FOG
*HOUSTON EXEC  CLEAR     75  75 100 CALM      30.04R FOG
*CLEVELAND MUN CLEAR     78  76  91 NW3       30.02S
*WHARTON       NOT AVBL
*COLUMBUS      FAIR      75  74  99 NW3       30.03S
*EAGLE LAKE    SUNNY     76  75  97 NW3       30.02S FOG
$$

TXZ214>216-236>238-301200-
THE UPPER TEXAS COAST

CITY           SKY/WX    TMP DP  RH WIND       PRES   REMARKS
*ORANGE        MOCLDY    80  80 100 CALM      30.02R
PORT ARTHUR    MOCLDY    80  78  94 W3        30.00R
GALVESTON      CLEAR     82  78  88 W8        30.01F HX  91
ANGLETON       FOG       77  75  93 CALM      30.01S VSB 1
*BAY CITY      PTCLDY    76  76 100 CALM      30.01S FOG
PALACIOS       CLEAR     77  76  96 N3        30.02R
$$

TXZ229>234-239>247-301200-
TEXAS COASTAL BEND AND RIO GRANDE PLAINS

CITY           SKY/WX    TMP DP  RH WIND       PRES   REMARKS
VICTORIA       FOG       72  72 100 W5        30.03S VSB 1/2
*BEEVILLE      FOG       71  71 100 CALM      30.03S VSB 1/4
ROCKPORT       CLEAR     77  74  90 CALM      30.01R FOG
*PORT ARANSAS  PTCLDY    79  77  95 SW3       30.02R
*PORT LAVACA   CLEAR     73  73 100 W3        30.02S FOG
*INGLESIDE     CLEAR     80  77  89 S5        30.01R
CORPUS CHRISTI PTCLDY    72  70  94 CALM      30.02R FOG
CORPUS NAS     PTCLDY    78  75  90 CALM      30.01R
*ROBSTOWN      FOG       74  74  99 CALM      30.02R VSB 1/4
ALICE          FOG       72  71  97 CALM      30.01S VSB 1/4
KINGSVILLE NAS CLOUDY    71  71 100 CALM      30.01S FOG
COTULLA        CLEAR     75  71  87 E5        30.03R
*FAITH RANCH     N/A     75  70  83 SE5       30.02S
LAREDO         CLEAR     76  72  87 CALM      30.03R
$$

TXZ248>255-301200-
DEEP SOUTH TEXAS

CITY           SKY/WX    TMP DP  RH WIND       PRES   REMARKS
BROWNSVILLE    PTCLDY    76  75  97 CALM      30.00S FOG
PORT ISABEL    CLEAR     76  75  97 CALM      30.00R
*SOUTH PADRE   CLEAR     77  77 100 CALM      30.00S
HARLINGEN      FOG       73  73 100 CALM      29.99S VSB 1/4
*HEBBRONVILLE  FOG       71  70  96 CALM      30.03S VSB 1/4
MCALLEN        PTCLDY    80  75  84 E3        30.01R
*WESLACO       PTCLDY    77  74  90 CALM      30.00R
FALFURRIAS     CLOUDY    72  71  95 CALM      30.01R VSB 1/2
EDINBURG       CLEAR     75  72  90 CALM      30.01R FOG
*ZAPATA        CLOUDY    78  75  90 SE6       30.00R
$$

TXZ213>215-236>238-242>244-246-247-251-254-255-301200-
CMAN STATIONS

STATION/POSITION TIME  TEMP    WIND        PRES    WAVE
                       AIR SEA DIR/SP/G            HT/PER
                 (UTC) (F)     (DEG/KT/KT) (MB)    (FT/S)
$$

GMZ080-GMZ150>470-301200-
OFFSHORE BUOY REPORTS

STATION/POSITION TIME  TEMP    WIND        PRES    WAVE
                       AIR SEA DIR/SP/G            HT/PER
                 (UTC) (F)     (DEG/KT/KT) (MB)    (FT/S)
$$



USA.gov is the U.S. government's official web portal to all federal, state and local government web resources and services.